Date String (YYYY-MM-DD hh:mm:ss) UTC,Instrument flags,Ambient pressure (hPa),Sample flow (lpm),Bypass flow (lpm),Sample temperature (°C),Ambient temperature (°C),ASC tube jacket temperature (°C),LED temperature (°C),Box temperature (°C),Sample RH (%),Span deviation,Mass concentration (μg/m³),Mass concentration (μg/m³),Mass concentration (μg/m³)
DateTimeUTC,F1_M11,P_M11,Q1_M11,Q2_M11,T1_M11,T2_M11,T3_M11,T4_M11,T5_M11,U1_M11,ZSPAN_M11,X0_M11,X2_M11,X1_M11
2021-11-29 17:00:00,,0828.3,4.99,0.00,30.5,29.8,00.0,39.4,32.2,10.0,0000.0,0004.28,0000.37,0000.17
2021-11-29 17:01:00,,0828.3,4.99,0.00,30.5,29.8,00.0,39.4,32.2,10.0,0000.0,0004.11,0000.37,0000.16
2021-11-29 17:02:00,,0828.2,5.00,0.00,30.5,29.8,00.0,39.4,32.2,10.0,0000.0,0004.17,0000.35,0000.16
2021-11-29 17:03:00,,0828.3,5.01,0.00,30.5,29.8,00.0,39.5,32.2,10.0,0000.0,0003.70,0000.35,0000.16
2021-11-29 17:04:00,,0828.3,5.00,0.00,30.6,29.8,00.0,39.5,32.3,10.0,0000.0,0003.76,0000.38,0000.17
2021-11-29 17:05:00,,0828.3,4.99,0.00,30.6,29.9,00.0,39.5,32.3,10.1,0000.0,0004.71,0000.38,0000.17
2021-11-29 17:06:00,,0828.3,4.99,0.00,30.6,29.9,00.0,39.5,32.3,10.2,0000.0,0006.22,0000.41,0000.17
2021-11-29 17:07:00,,0828.3,5.01,0.00,30.6,29.9,00.0,39.5,32.3,10.2,0000.0,0007.58,0000.46,0000.17
2021-11-29 17:08:00,,0828.3,5.00,0.00,30.6,29.9,00.0,39.5,32.3,10.2,0000.0,0008.43,0000.53,0000.18
2021-11-29 17:09:00,,0828.3,5.00,0.00,30.6,29.9,00.0,39.5,32.3,10.2,0000.0,0008.70,0000.55,0000.18
2021-11-29 17:10:00,,0828.4,5.00,0.00,30.7,29.9,00.0,39.5,32.4,10.0,0000.0,0008.94,0000.59,0000.19
2021-11-29 17:11:00,,0828.4,5.00,0.00,30.7,30.0,00.0,39.6,32.4,10.0,0000.0,0008.50,0000.65,0000.19
2021-11-29 17:12:00,,0828.5,4.99,0.00,30.7,30.0,00.0,39.6,32.4,10.0,0000.0,0008.42,0000.72,0000.20
2021-11-29 17:13:00,,0828.5,5.00,0.00,30.7,30.0,00.0,39.6,32.4,09.9,0000.0,0008.34,0000.75,0000.21
2021-11-29 17:14:00,,0828.4,5.01,0.00,30.7,30.0,00.0,39.6,32.4,09.9,0000.0,0008.56,0000.76,0000.21
2021-11-29 17:15:00,,0828.4,5.01,0.00,30.7,30.0,00.0,39.6,32.4,09.9,0000.0,0008.56,0000.74,0000.21
2021-11-29 17:16:00,,0828.5,4.99,0.00,30.8,30.1,00.0,39.6,32.4,09.9,0000.0,0007.94,0000.72,0000.21
2021-11-29 17:17:00,,0828.4,4.99,0.00,30.8,30.1,00.0,39.7,32.5,09.9,0000.0,0006.97,0000.70,0000.21
2021-11-29 17:18:00,,0828.4,5.02,0.00,30.8,30.1,00.0,39.7,32.5,09.9,0000.0,0005.72,0000.65,0000.21
2021-11-29 17:19:00,,0828.4,4.98,0.00,30.8,30.2,00.0,39.7,32.5,09.9,0000.0,0005.41,0000.58,0000.20
2021-11-29 17:20:00,,0828.3,5.01,0.00,30.8,30.2,00.0,39.7,32.6,09.9,0000.0,0005.39,0000.58,0000.20
2021-11-29 17:21:00,,0828.4,5.00,0.00,30.9,30.2,00.0,39.7,32.6,09.9,0000.0,0005.59,0000.60,0000.20
2021-11-29 17:22:00,,0828.5,5.00,0.00,30.9,30.2,00.0,39.7,32.6,09.9,0000.0,0005.83,0000.58,0000.21
2021-11-29 17:23:00,,0828.4,5.00,0.00,30.9,30.2,00.0,39.8,32.6,09.9,0000.0,0005.81,0000.60,0000.21
2021-11-29 17:24:00,,0828.4,5.01,0.00,30.9,30.2,00.0,39.8,32.6,10.0,0000.0,0005.59,0000.58,0000.21
2021-11-29 17:25:00,,0828.3,4.98,0.00,30.9,28.8,00.0,39.8,32.3,09.9,0000.0,0005.12,0000.59,0000.21
2021-11-29 17:26:00,,0828.3,5.01,0.00,30.7,26.7,00.0,39.7,31.8,09.9,0000.0,0005.03,0000.59,0000.22
2021-11-29 17:27:00,,0828.3,5.00,0.00,30.5,26.1,00.0,39.7,31.6,10.1,0000.0,0005.08,0000.61,0000.22
2021-11-29 17:28:00,,0828.3,5.01,0.00,30.4,26.6,00.0,39.6,31.7,10.2,0000.0,0005.05,0000.63,0000.22
2021-11-29 17:29:00,,0828.3,5.00,0.00,30.4,27.1,00.0,39.6,31.7,10.2,0000.0,0005.06,0000.64,0000.23
2021-11-29 17:30:00,,0828.3,4.99,0.00,30.3,27.6,00.0,39.5,31.7,10.1,0000.0,0004.14,0000.68,0000.23
2021-11-29 17:31:00,,0828.3,5.01,0.00,30.3,28.0,00.0,39.5,31.8,10.1,0000.0,0003.36,0000.65,0000.24
2021-11-29 17:32:00,,0828.3,5.01,0.00,30.3,28.3,00.0,39.4,31.8,10.2,0000.0,0002.69,0000.62,0000.23
2021-11-29 17:33:00,,0828.3,4.98,0.00,30.3,28.6,00.0,39.4,31.9,10.2,0000.0,0002.13,0000.59,0000.22
2021-11-29 17:34:00,,0828.3,5.00,0.00,30.3,28.8,00.0,39.4,31.9,10.2,0000.0,0001.82,0000.51,0000.21
2021-11-29 17:35:00,,0828.2,5.00,0.00,30.3,29.0,00.0,39.4,32.0,10.2,0000.0,0002.55,0000.52,0000.20
2021-11-29 17:36:00,,0828.2,4.99,0.00,30.3,29.1,00.0,39.4,32.0,10.2,0000.0,0002.47,0000.48,0000.20
2021-11-29 17:37:00,,0828.3,5.01,0.00,30.4,29.2,00.0,39.4,32.0,09.9,0000.0,0002.84,0000.48,0000.19
2021-11-29 17:38:00,,0828.2,4.99,0.00,30.4,29.3,00.0,39.4,32.1,09.7,0000.0,0003.14,0000.49,0000.19
2021-11-29 17:39:00,,0828.2,5.01,0.00,30.4,29.4,00.0,39.4,32.1,09.7,0000.0,0003.09,0000.47,0000.18
2021-11-29 17:40:00,,0828.2,5.00,0.00,30.4,29.5,00.0,39.4,32.2,09.7,0000.0,0003.70,0000.45,0000.18
2021-11-29 17:41:00,,0828.2,5.00,0.00,30.5,29.6,00.0,39.4,32.2,09.7,0000.0,0003.94,0000.41,0000.17
2021-11-29 17:42:00,,0828.3,5.00,0.00,30.5,29.6,00.0,39.4,32.2,09.8,0000.0,0004.26,0000.41,0000.17
2021-11-29 17:43:00,,0828.4,5.00,0.00,30.5,29.7,00.0,39.4,32.3,10.6,0000.0,0005.26,0000.51,0000.20
2021-11-29 17:44:00,,0828.4,5.00,0.00,30.6,29.8,00.0,39.5,32.3,11.2,0000.0,0007.41,0000.87,0000.31
2021-11-29 17:45:00,,0828.3,4.99,0.00,30.6,29.8,00.0,39.5,32.3,11.3,0000.0,0009.81,0001.31,0000.43
2021-11-29 17:46:00,,0828.3,5.01,0.00,30.6,29.8,00.0,39.5,32.4,11.4,0000.0,0010.76,0001.70,0000.56
2021-11-29 17:47:00,,0828.3,5.00,0.00,30.6,29.9,00.0,39.5,32.4,11.4,0000.0,0013.23,0002.23,0000.69
2021-11-29 17:48:00,,0828.3,5.01,0.00,30.7,29.9,00.0,39.5,32.4,11.4,0000.0,0015.47,0002.75,0000.84
2021-11-29 17:49:00,,0828.4,5.01,0.00,30.7,29.9,00.0,39.6,32.5,11.5,0000.0,0017.21,0003.21,0000.99
2021-11-29 17:50:00,,0828.4,4.98,0.00,30.7,30.0,00.0,39.6,32.5,11.6,0000.0,0019.67,0003.55,0001.16
2021-11-29 17:51:00,,0828.4,5.01,0.00,30.7,30.0,00.0,39.6,32.5,11.6,0000.0,0022.17,0003.91,0001.33
2021-11-29 17:52:00,,0828.5,5.00,0.00,30.8,30.0,00.0,39.6,32.5,11.6,0000.0,0025.81,0004.29,0001.52
2021-11-29 17:53:00,,0828.4,4.99,0.00,30.8,30.0,00.0,39.6,32.5,11.7,0000.0,0027.92,0004.59,0001.69
2021-11-29 17:54:00,,0828.4,5.00,0.00,30.8,28.9,00.0,39.7,32.3,11.7,0000.0,0029.14,0004.91,0001.83
2021-11-29 17:55:00,,0828.3,5.00,0.00,30.6,26.8,00.0,39.6,31.8,11.8,0000.0,0030.87,0005.16,0001.89
2021-11-29 17:56:00,,0828.3,5.00,0.00,30.5,26.5,00.0,39.6,31.7,11.9,0000.0,0031.40,0005.30,0001.96
2021-11-29 17:57:00,,0828.3,5.01,0.00,30.3,26.9,00.0,39.5,31.6,11.9,0000.0,0032.76,0005.42,0002.00
2021-11-29 17:58:00,,0828.3,5.00,0.00,30.3,27.4,00.0,39.5,31.7,12.1,0000.0,0033.05,0005.50,0002.03
2021-11-29 17:59:00,,0828.4,4.99,0.00,30.2,27.8,00.0,39.4,31.7,12.1,0000.0,0033.07,0005.52,0002.05
